Weather History for Marianna, FL

Change the Weather History Date:

Sunday, February 17, 2013

  Actual Average Record
Temperature  
Mean Temperature 41 °F 55 °F  
Max Temperature 53 °F 67 °F 80 °F (2006)
Min Temperature 28 °F 43 °F 21 °F (2007)
Degree Days  
Heating Degree Days 24    
Month to date heating degree days 178  
Since 1 July heating degree days 904  
Cooling Degree Days 0    
Month to date cooling degree days 5  
Year to date cooling degree days 58  
Moisture  
Dew Point 19 °F    
Average Humidity 49    
Maximum Humidity 78    
Minimum Humidity 19    
Precipitation  
Precipitation 0.00 in 0.17 in 0.98 in (2008)
Month to date precipitation 2.80 2.87  
Year to date precipitation 3.76 7.91  
Sea Level Pressure  
Sea Level Pressure 30.31 in    
Wind  
Wind Speed 3 mph (NW)    
Max Wind Speed 10 mph    
Max Gust Speed 14 mph    
Visibility 10 miles    
Events      
T = Trace of Precipitation, MM = Missing Value Source: NWS Daily Summary

Daily Weather History Graph

Daily Weather History Graph

Search for Another Location

Airport:

Trip Planner

Search our weather history database for the weather conditions in past years. The results will help you decide how hot, cold, wet, or windy it might be!

Date:

Astronomy

Feb. 17, 2013 Rise Set
Actual Time 6:19 AM CST 5:30 PM CST
Civil Twilight 5:54 AM CST 5:54 PM CST
Nautical Twilight 5:26 AM CST 6:23 PM CST
Astronomical Twilight 4:58 AM CST 6:51 PM CST
Moon 10:43 AM CST (2/17) No Moon Set
Length of Visible Light 12h 00m
Length of Day
11h 10m
Waxing Crescent, 49% of the Moon is Illuminated
Feb 17
Waxing Crescent
Feb 17
First Quarter
Feb 25
Full
Mar 4
Last Quarter
Mar 11
New

Hourly Weather History & Observations

Time (CST) Temp. Windchill Dew Point Humidity Pressure Visibility Wind Dir Wind Speed Gust Speed Precip Events Conditions
12:53 AM 34.0 °F 29.8 °F 21.0 °F 59% 30.26 in 10.0 mi WNW 4.6 mph - N/A   Clear
1:53 AM 33.1 °F 28.7 °F 21.0 °F 61% 30.26 in 10.0 mi West 4.6 mph - N/A   Clear
2:53 AM 32.0 °F 28.7 °F 21.9 °F 66% 30.26 in 10.0 mi West 3.5 mph - N/A   Clear
3:53 AM 30.9 °F 27.5 °F 21.0 °F 67% 30.27 in 10.0 mi NNW 3.5 mph - N/A   Clear
4:53 AM 30.0 °F - 21.0 °F 69% 30.29 in 10.0 mi Calm Calm - N/A   Clear
5:53 AM 28.9 °F - 21.9 °F 75% 30.31 in 10.0 mi Calm Calm - N/A   Clear
8:53 AM 39.9 °F 37.8 °F 21.0 °F 47% 30.38 in 10.0 mi Variable 3.5 mph - N/A   Clear
9:53 AM 42.1 °F 40.2 °F 16.0 °F 35% 30.39 in 10.0 mi Variable 3.5 mph - N/A   Clear
10:53 AM 45.0 °F 40.6 °F 16.0 °F 31% 30.39 in 10.0 mi NNE 8.1 mph - N/A   Clear
11:53 AM 48.0 °F - 15.1 °F 27% 30.37 in 10.0 mi Variable 4.6 mph - N/A   Clear
12:53 PM 48.9 °F - 12.9 °F 24% 30.32 in 10.0 mi Variable 4.6 mph - N/A   Clear
1:53 PM 52.0 °F - 12.0 °F 20% 30.30 in 10.0 mi North 3.5 mph - N/A   Clear
2:53 PM 52.0 °F - 10.0 °F 19% 30.28 in 10.0 mi Variable 3.5 mph - N/A   Clear
3:53 PM 52.0 °F - 10.9 °F 19% 30.28 in 10.0 mi NW 4.6 mph - N/A   Clear
4:53 PM 52.0 °F - 12.9 °F 21% 30.29 in 10.0 mi NW 4.6 mph - N/A   Clear
5:53 PM 46.0 °F - 21.0 °F 37% 30.29 in 10.0 mi Calm Calm - N/A   Clear
6:53 PM 39.9 °F - 25.0 °F 55% 30.31 in 10.0 mi Calm Calm - N/A   Clear
7:53 PM 37.0 °F - 26.1 °F 65% 30.32 in 10.0 mi Calm Calm - N/A   Clear
8:53 PM 36.0 °F - 27.0 °F 70% 30.33 in 10.0 mi Calm Calm - N/A   Clear
9:53 PM 37.0 °F - 26.1 °F 65% 30.34 in 10.0 mi Calm Calm - N/A   Clear
11:53 PM 35.1 °F 32.2 °F 27.0 °F 72% 30.34 in 10.0 mi South 3.5 mph - N/A   Clear